Time,TemperatureF,DewpointF,PressureIn,WindDirection,WindDirectionDegrees,WindSpeedMPH,WindSpeedGustMPH,Humidity,HourlyPrecipIn,Conditions,Clouds,dailyrainin,SoftwareType,DateUTC
2013-09-06 00:03:00,76.7,64.0,30.12,SE,127,0.0,0.0,65,0.00,SCT,SCT,0.00,WeatherDisplay:10.37,2013-09-06 05:03:00,
2013-09-06 00:09:00,76.5,63.8,30.12,SE,129,0.0,0.0,65,0.00,SCT,SCT,0.00,WeatherDisplay:10.37,2013-09-06 05:09:00,
2013-09-06 00:15:00,76.1,63.9,30.12,ESE,108,0.0,0.0,66,0.00,SCT,SCT,0.00,WeatherDisplay:10.37,2013-09-06 05:15:00,
2013-09-06 00:21:00,76.0,63.8,30.12,SSE,158,0.0,0.0,66,0.00,SCT,SCT,0.00,WeatherDisplay:10.37,2013-09-06 05:21:00,
2013-09-06 00:27:00,75.8,64.0,30.12,ESE,104,0.0,0.0,67,0.00,SCT,SCT,0.00,WeatherDisplay:10.37,2013-09-06 05:27:00,
2013-09-06 00:33:00,75.6,63.8,30.12,SE,143,0.0,0.0,67,0.00,SCT,SCT,0.00,WeatherDisplay:10.37,2013-09-06 05:33:00,
2013-09-06 00:39:00,75.6,63.8,30.12,SSE,160,0.0,0.0,67,0.00,SCT,SCT,0.00,WeatherDisplay:10.37,2013-09-06 05:39:00,
2013-09-06 00:45:00,75.4,63.6,30.12,SSE,152,0.0,0.0,67,0.00,SCT,SCT,0.00,WeatherDisplay:10.37,2013-09-06 05:45:00,
2013-09-06 00:51:00,75.3,63.6,30.11,SSE,147,0.0,0.0,67,0.00,SCT,SCT,0.00,WeatherDisplay:10.37,2013-09-06 05:51:00,
2013-09-06 00:57:00,75.2,63.4,30.11,SE,129,0.0,0.0,67,0.00,SCT,SCT,0.00,WeatherDisplay:10.37,2013-09-06 05:57:00,
2013-09-06 01:03:00,75.1,63.8,30.12,ESE,102,0.0,0.0,68,0.00,FEW,FEW,0.00,WeatherDisplay:10.37,2013-09-06 06:03:00,
2013-09-06 01:09:00,74.9,63.6,30.12,ESE,109,0.0,0.0,68,0.00,FEW,FEW,0.00,WeatherDisplay:10.37,2013-09-06 06:09:00,
2013-09-06 01:15:00,74.5,63.2,30.12,SE,129,0.0,0.0,68,0.00,FEW,FEW,0.00,WeatherDisplay:10.37,2013-09-06 06:15:00,
2013-09-06 01:21:00,74.5,63.6,30.12,SE,137,0.0,0.0,69,0.00,FEW,FEW,0.00,WeatherDisplay:10.37,2013-09-06 06:21:00,
2013-09-06 01:27:00,74.3,63.4,30.12,SE,130,0.0,0.0,69,0.00,FEW,FEW,0.00,WeatherDisplay:10.37,2013-09-06 06:27:00,
2013-09-06 01:33:00,74.2,63.3,30.12,East,99,0.0,0.0,69,0.00,FEW,FEW,0.00,WeatherDisplay:10.37,2013-09-06 06:33:00,
2013-09-06 01:39:00,74.0,63.6,30.11,East,101,0.0,0.0,70,0.00,FEW,FEW,0.00,WeatherDisplay:10.37,2013-09-06 06:39:00,
2013-09-06 01:45:00,73.8,63.4,30.11,SSE,150,0.0,0.0,70,0.00,FEW,FEW,0.00,WeatherDisplay:10.37,2013-09-06 06:45:00,
2013-09-06 01:51:00,73.6,63.2,30.11,SE,134,0.0,0.0,70,0.00,FEW,FEW,0.00,WeatherDisplay:10.37,2013-09-06 06:51:00,
2013-09-06 01:57:00,73.4,63.4,30.11,ESE,105,0.0,0.0,71,0.00,FEW,FEW,0.00,WeatherDisplay:10.37,2013-09-06 06:57:00,
2013-09-06 02:03:00,73.4,63.8,30.10,SE,145,0.0,0.0,72,0.00,FEW,FEW,0.00,WeatherDisplay:10.37,2013-09-06 07:03:00,
2013-09-06 02:09:00,73.3,63.7,30.10,SE,145,0.0,0.0,72,0.00,FEW,FEW,0.00,WeatherDisplay:10.37,2013-09-06 07:09:00,
2013-09-06 02:15:00,73.3,63.7,30.10,ESE,112,0.0,0.0,72,0.00,FEW,FEW,0.00,WeatherDisplay:10.37,2013-09-06 07:15:00,
2013-09-06 02:21:00,73.3,63.7,30.10,SE,127,0.0,0.0,72,0.00,FEW,FEW,0.00,WeatherDisplay:10.37,2013-09-06 07:21:00,
2013-09-06 02:27:00,73.3,63.7,30.10,SE,139,0.0,0.0,72,0.00,FEW,FEW,0.00,WeatherDisplay:10.37,2013-09-06 07:27:00,
2013-09-06 02:33:00,73.3,63.7,30.10,ESE,119,0.0,2.0,72,0.00,FEW,FEW,0.00,WeatherDisplay:10.37,2013-09-06 07:33:00,
2013-09-06 02:39:00,73.1,63.5,30.10,East,93,0.0,0.0,72,0.00,FEW,FEW,0.00,WeatherDisplay:10.37,2013-09-06 07:39:00,
2013-09-06 02:45:00,73.1,63.5,30.10,ESE,116,0.0,0.0,72,0.00,FEW,FEW,0.00,WeatherDisplay:10.37,2013-09-06 07:45:00,
2013-09-06 02:51:00,72.9,63.3,30.10,East,101,0.0,0.0,72,0.00,FEW,FEW,0.00,WeatherDisplay:10.37,2013-09-06 07:51:00,
2013-09-06 02:57:00,72.9,63.7,30.10,SE,134,0.0,0.0,73,0.00,FEW,FEW,0.00,WeatherDisplay:10.37,2013-09-06 07:57:00,
2013-09-06 03:03:00,72.9,63.7,30.10,SSE,164,0.0,0.0,73,0.00,SCT,SCT,0.00,WeatherDisplay:10.37,2013-09-06 08:03:00,
2013-09-06 03:09:00,72.7,63.5,30.10,ENE,77,0.0,0.0,73,0.00,SCT,SCT,0.00,WeatherDisplay:10.37,2013-09-06 08:09:00,
2013-09-06 03:15:00,72.7,63.5,30.10,ESE,113,0.0,0.0,73,0.00,SCT,SCT,0.00,WeatherDisplay:10.37,2013-09-06 08:15:00,
2013-09-06 03:21:00,72.5,63.7,30.10,SSE,161,0.0,0.0,74,0.00,SCT,SCT,0.00,WeatherDisplay:10.37,2013-09-06 08:21:00,
2013-09-06 03:27:00,72.5,63.7,30.10,SSE,159,0.0,0.0,74,0.00,SCT,SCT,0.00,WeatherDisplay:10.37,2013-09-06 08:27:00,
2013-09-06 03:33:00,72.2,63.4,30.10,SE,146,0.0,0.0,74,0.00,SCT,SCT,0.00,WeatherDisplay:10.37,2013-09-06 08:33:00,
2013-09-06 03:39:00,72.2,63.4,30.09,SE,145,0.0,0.0,74,0.00,SCT,SCT,0.00,WeatherDisplay:10.37,2013-09-06 08:39:00,
2013-09-06 03:45:00,72.2,63.4,30.09,SE,133,0.0,0.0,74,0.00,SCT,SCT,0.00,WeatherDisplay:10.37,2013-09-06 08:45:00,
2013-09-06 03:51:00,72.2,63.4,30.09,SSE,158,0.0,0.0,74,0.00,SCT,SCT,0.00,WeatherDisplay:10.37,2013-09-06 08:51:00,
2013-09-06 03:57:00,72.0,63.6,30.09,ESE,119,0.0,0.0,75,0.00,SCT,SCT,0.00,WeatherDisplay:10.37,2013-09-06 08:57:00,
2013-09-06 04:03:00,72.0,63.6,30.09,SE,137,0.0,0.0,75,0.00,SCT,SCT,0.00,WeatherDisplay:10.37,2013-09-06 09:03:00,
2013-09-06 04:09:00,72.0,63.6,30.09,SE,139,0.0,0.0,75,0.00,SCT,SCT,0.00,WeatherDisplay:10.37,2013-09-06 09:09:00,
2013-09-06 04:15:00,71.8,63.4,30.09,SSE,148,0.0,0.0,75,0.00,SCT,SCT,0.00,WeatherDisplay:10.37,2013-09-06 09:15:00,
2013-09-06 04:21:00,71.8,63.4,30.09,SE,133,0.0,0.0,75,0.00,SCT,SCT,0.00,WeatherDisplay:10.37,2013-09-06 09:21:00,
2013-09-06 04:27:00,71.6,63.6,30.09,East,99,0.0,0.0,76,0.00,SCT,SCT,0.00,WeatherDisplay:10.37,2013-09-06 09:27:00,
2013-09-06 04:33:00,71.5,63.6,30.09,ESE,120,0.0,0.0,76,0.00,SCT,SCT,0.00,WeatherDisplay:10.37,2013-09-06 09:33:00,
2013-09-06 04:39:00,71.3,63.3,30.09,SE,124,0.0,0.0,76,0.00,SCT,SCT,0.00,WeatherDisplay:10.37,2013-09-06 09:39:00,
2013-09-06 04:45:00,71.1,63.5,30.09,East,101,0.0,0.0,77,0.00,SCT,SCT,0.00,WeatherDisplay:10.37,2013-09-06 09:45:00,
2013-09-06 04:51:00,70.9,63.3,30.10,SSE,148,0.0,0.0,77,0.00,SCT,SCT,0.00,WeatherDisplay:10.37,2013-09-06 09:51:00,
2013-09-06 04:57:00,70.9,63.3,30.10,SSE,168,0.0,0.0,77,0.00,SCT,SCT,0.00,WeatherDisplay:10.37,2013-09-06 09:57:00,
2013-09-06 05:03:00,70.9,63.3,30.09,SSE,148,0.0,0.0,77,0.00,FEW,FEW,0.00,WeatherDisplay:10.37,2013-09-06 10:03:00,
2013-09-06 05:09:00,70.9,63.3,30.09,SSE,166,0.0,0.0,77,0.00,FEW,FEW,0.00,WeatherDisplay:10.37,2013-09-06 10:09:00,
2013-09-06 05:15:00,70.9,63.3,30.09,South,172,0.0,0.0,77,0.00,FEW,FEW,0.00,WeatherDisplay:10.37,2013-09-06 10:15:00,
2013-09-06 05:21:00,70.6,63.4,30.09,South,171,0.0,0.0,78,0.00,FEW,FEW,0.00,WeatherDisplay:10.37,2013-09-06 10:21:00,
2013-09-06 05:27:00,70.6,63.4,30.09,SSE,153,0.0,0.0,78,0.00,FEW,FEW,0.00,WeatherDisplay:10.37,2013-09-06 10:27:00,
2013-09-06 05:33:00,70.4,63.2,30.09,SSE,161,0.0,0.0,78,0.00,FEW,FEW,0.00,WeatherDisplay:10.37,2013-09-06 10:33:00,
2013-09-06 05:39:00,70.4,63.5,30.09,South,178,0.0,0.0,79,0.00,FEW,FEW,0.00,WeatherDisplay:10.37,2013-09-06 10:39:00,
2013-09-06 05:45:00,70.1,63.3,30.09,SSE,161,0.0,0.0,79,0.00,FEW,FEW,0.00,WeatherDisplay:10.37,2013-09-06 10:45:00,
2013-09-06 05:51:00,70.0,63.5,30.09,SSE,158,0.0,0.0,80,0.00,FEW,FEW,0.00,WeatherDisplay:10.37,2013-09-06 10:51:00,
2013-09-06 05:57:00,69.8,63.3,30.09,South,171,0.0,0.0,80,0.00,FEW,FEW,0.00,WeatherDisplay:10.37,2013-09-06 10:57:00,
2013-09-06 06:03:00,69.7,63.6,30.09,SSE,165,0.0,0.0,81,0.00,FEW,FEW,0.00,WeatherDisplay:10.37,2013-09-06 11:03:00,
2013-09-06 06:09:00,69.5,63.4,30.09,SSE,159,0.0,0.0,81,0.00,FEW,FEW,0.00,WeatherDisplay:10.37,2013-09-06 11:09:00,
2013-09-06 06:15:00,69.1,63.4,30.09,ESE,104,0.0,0.0,82,0.00,FEW,FEW,0.00,WeatherDisplay:10.37,2013-09-06 11:15:00,
2013-09-06 06:21:00,68.9,63.1,30.09,East,99,0.0,0.0,82,0.00,FEW,FEW,0.00,WeatherDisplay:10.37,2013-09-06 11:21:00,
2013-09-06 06:27:00,68.6,63.2,30.10,East,82,0.0,0.0,83,0.00,FEW,FEW,0.00,WeatherDisplay:10.37,2013-09-06 11:27:00,
2013-09-06 06:33:00,68.4,63.3,30.10,East,82,0.0,0.0,84,0.00,FEW,FEW,0.00,WeatherDisplay:10.37,2013-09-06 11:33:00,
2013-09-06 06:39:00,68.0,62.9,30.09,ESE,106,0.0,0.0,84,0.00,FEW,FEW,0.00,WeatherDisplay:10.37,2013-09-06 11:39:00,
2013-09-06 06:45:00,67.9,63.2,30.09,East,100,0.0,0.0,85,0.00,FEW,FEW,0.00,WeatherDisplay:10.37,2013-09-06 11:45:00,
2013-09-06 06:51:00,67.7,63.0,30.09,ESE,113,0.0,0.0,85,0.00,FEW,FEW,0.00,WeatherDisplay:10.37,2013-09-06 11:51:00,
2013-09-06 06:57:00,67.5,63.2,30.09,ESE,115,0.0,0.0,86,0.00,FEW,FEW,0.00,WeatherDisplay:10.37,2013-09-06 11:57:00,
2013-09-06 07:03:00,67.3,62.9,30.10,East,91,0.0,0.0,86,0.00,SCT,SCT,0.00,WeatherDisplay:10.37,2013-09-06 12:03:00,
2013-09-06 07:09:00,67.3,63.3,30.10,East,94,0.0,0.0,87,0.00,SCT,SCT,0.00,WeatherDisplay:10.37,2013-09-06 12:09:00,
2013-09-06 07:15:00,67.3,63.6,30.10,ESE,107,0.0,0.0,88,0.00,SCT,SCT,0.00,WeatherDisplay:10.37,2013-09-06 12:15:00,
2013-09-06 07:21:00,67.1,63.4,30.10,East,98,0.0,0.0,88,0.00,SCT,SCT,0.00,WeatherDisplay:10.37,2013-09-06 12:21:00,
2013-09-06 07:27:00,67.1,63.4,30.10,ESE,108,0.0,0.0,88,0.00,SCT,SCT,0.00,WeatherDisplay:10.37,2013-09-06 12:27:00,
2013-09-06 07:33:00,67.1,63.4,30.10,SE,128,0.0,0.0,88,0.00,SCT,SCT,0.00,WeatherDisplay:10.37,2013-09-06 12:33:00,
2013-09-06 07:39:00,67.5,63.8,30.10,SE,143,0.0,0.0,88,0.00,SCT,SCT,0.00,WeatherDisplay:10.37,2013-09-06 12:39:00,
2013-09-06 07:45:00,68.3,64.3,30.10,SSE,164,0.0,0.0,87,0.00,SCT,SCT,0.00,WeatherDisplay:10.37,2013-09-06 12:45:00,
2013-09-06 07:51:00,68.8,64.4,30.10,South,171,0.0,0.0,86,0.00,SCT,SCT,0.00,WeatherDisplay:10.37,2013-09-06 12:51:00,
2013-09-06 07:57:00,69.4,64.7,30.10,South,174,0.0,0.0,85,0.00,SCT,SCT,0.00,WeatherDisplay:10.37,2013-09-06 12:57:00,
2013-09-06 08:03:00,69.7,64.6,30.10,SSE,159,0.0,2.0,84,0.00,SCT,SCT,0.00,WeatherDisplay:10.37,2013-09-06 13:03:00,
2013-09-06 08:09:00,70.4,64.6,30.10,SSE,147,0.0,3.0,82,0.00,SCT,SCT,0.00,WeatherDisplay:10.37,2013-09-06 13:09:00,
2013-09-06 08:15:00,70.7,64.5,30.10,South,174,0.0,0.0,81,0.00,SCT,SCT,0.00,WeatherDisplay:10.37,2013-09-06 13:15:00,
2013-09-06 08:21:00,70.9,64.7,30.10,SSE,162,0.0,0.0,81,0.00,SCT,SCT,0.00,WeatherDisplay:10.37,2013-09-06 13:21:00,
2013-09-06 08:27:00,71.5,65.0,30.11,SSE,152,0.0,0.0,80,0.00,SCT,SCT,0.00,WeatherDisplay:10.37,2013-09-06 13:27:00,
2013-09-06 08:33:00,71.8,65.3,30.11,SSE,158,0.0,0.0,80,0.00,SCT,SCT,0.00,WeatherDisplay:10.37,2013-09-06 13:33:00,
2013-09-06 08:39:00,71.8,64.9,30.11,SSE,148,0.0,0.0,79,0.00,SCT,SCT,0.00,WeatherDisplay:10.37,2013-09-06 13:39:00,
2013-09-06 08:45:00,72.2,65.3,30.11,SE,133,0.0,0.0,79,0.00,SCT,SCT,0.00,WeatherDisplay:10.37,2013-09-06 13:45:00,
2013-09-06 08:51:00,72.5,65.2,30.11,South,190,0.0,0.0,78,0.00,SCT,SCT,0.00,WeatherDisplay:10.37,2013-09-06 13:51:00,
2013-09-06 08:57:00,72.9,65.6,30.11,South,173,0.0,0.0,78,0.00,SCT,SCT,0.00,WeatherDisplay:10.37,2013-09-06 13:57:00,
2013-09-06 09:03:00,73.4,65.7,30.11,SE,140,0.0,0.0,77,0.00,SCT,SCT,0.00,WeatherDisplay:10.37,2013-09-06 14:03:00,
2013-09-06 09:09:00,74.2,65.3,30.11,SSE,157,5.0,7.0,74,0.00,SCT,SCT,0.00,WeatherDisplay:10.37,2013-09-06 14:09:00,
2013-09-06 09:15:00,74.9,65.6,30.11,SE,138,6.0,7.0,73,0.00,SCT,SCT,0.00,WeatherDisplay:10.37,2013-09-06 14:15:00,
2013-09-06 09:21:00,75.2,65.9,30.11,SE,138,3.0,7.0,73,0.00,SCT,SCT,0.00,WeatherDisplay:10.37,2013-09-06 14:21:00,
2013-09-06 09:27:00,75.8,65.7,30.11,SSE,159,3.0,7.0,71,0.00,SCT,SCT,0.00,WeatherDisplay:10.37,2013-09-06 14:27:00,
2013-09-06 09:33:00,76.4,65.1,30.11,SSE,160,7.0,13.0,68,0.00,SCT,SCT,0.00,WeatherDisplay:10.37,2013-09-06 14:33:00,
2013-09-06 09:39:00,76.8,65.4,30.11,South,189,6.0,9.0,68,0.00,SCT,SCT,0.00,WeatherDisplay:10.37,2013-09-06 14:39:00,
2013-09-06 09:45:00,77.4,65.5,30.11,SSW,205,3.0,5.0,67,0.00,SCT,SCT,0.00,WeatherDisplay:10.37,2013-09-06 14:45:00,
2013-09-06 09:51:00,77.8,64.7,30.10,SW,216,8.0,10.0,64,0.00,SCT,SCT,0.00,WeatherDisplay:10.37,2013-09-06 14:51:00,
2013-09-06 09:57:00,78.3,65.1,30.10,SSE,165,6.0,8.0,64,0.00,SCT,SCT,0.00,WeatherDisplay:10.37,2013-09-06 14:57:00,
2013-09-06 10:03:00,78.8,65.1,30.11,SSE,154,6.0,9.0,63,0.00,SCT,SCT,0.00,WeatherDisplay:10.37,2013-09-06 15:03:00,
2013-09-06 10:09:00,79.4,65.2,30.11,South,169,6.0,9.0,62,0.00,SCT,SCT,0.00,WeatherDisplay:10.37,2013-09-06 15:09:00,
2013-09-06 10:15:00,79.7,65.5,30.11,SSE,163,5.0,12.0,62,0.00,SCT,SCT,0.00,WeatherDisplay:10.37,2013-09-06 15:15:00,
2013-09-06 10:21:00,80.3,64.6,30.11,South,184,8.0,12.0,59,0.00,SCT,SCT,0.00,WeatherDisplay:10.37,2013-09-06 15:21:00,
2013-09-06 10:27:00,80.5,65.3,30.10,SSE,163,6.0,10.0,60,0.00,SCT,SCT,0.00,WeatherDisplay:10.37,2013-09-06 15:27:00,
2013-09-06 10:33:00,81.0,65.3,30.10,SSE,147,6.0,8.0,59,0.00,SCT,SCT,0.00,WeatherDisplay:10.37,2013-09-06 15:33:00,
2013-09-06 10:39:00,81.8,66.1,30.10,South,176,6.0,7.0,59,0.00,SCT,SCT,0.00,WeatherDisplay:10.37,2013-09-06 15:39:00,
2013-09-06 10:45:00,82.1,65.3,30.10,SSW,196,5.0,7.0,57,0.00,SCT,SCT,0.00,WeatherDisplay:10.37,2013-09-06 15:45:00,
2013-09-06 10:51:00,82.8,65.5,30.10,South,183,5.0,7.0,56,0.00,SCT,SCT,0.00,WeatherDisplay:10.37,2013-09-06 15:51:00,
2013-09-06 10:57:00,83.0,65.6,30.10,SSE,168,6.0,9.0,56,0.00,SCT,SCT,0.00,WeatherDisplay:10.37,2013-09-06 15:57:00,
2013-09-06 11:03:00,83.5,65.6,30.10,South,175,6.0,9.0,55,0.00,FEW,FEW,0.00,WeatherDisplay:10.37,2013-09-06 16:03:00,
2013-09-06 11:09:00,83.9,65.4,30.10,South,185,5.0,7.0,54,0.00,FEW,FEW,0.00,WeatherDisplay:10.37,2013-09-06 16:09:00,
2013-09-06 11:15:00,84.3,65.3,30.09,South,180,7.0,9.0,53,0.00,FEW,FEW,0.00,WeatherDisplay:10.37,2013-09-06 16:15:00,
2013-09-06 11:21:00,84.8,65.8,30.09,South,173,5.0,9.0,53,0.00,FEW,FEW,0.00,WeatherDisplay:10.37,2013-09-06 16:21:00,
2013-09-06 11:27:00,85.3,65.6,30.09,South,172,6.0,9.0,52,0.00,FEW,FEW,0.00,WeatherDisplay:10.37,2013-09-06 16:27:00,
2013-09-06 11:33:00,85.9,65.6,30.09,South,189,5.0,9.0,51,0.00,FEW,FEW,0.00,WeatherDisplay:10.37,2013-09-06 16:33:00,
2013-09-06 11:39:00,86.2,65.3,30.09,SSW,212,3.0,10.0,50,0.00,FEW,FEW,0.00,WeatherDisplay:10.37,2013-09-06 16:39:00,
2013-09-06 11:45:00,86.4,64.4,30.09,SSW,194,7.0,10.0,48,0.00,FEW,FEW,0.00,WeatherDisplay:10.37,2013-09-06 16:45:00,
2013-09-06 11:51:00,87.2,65.2,30.09,South,181,7.0,9.0,48,0.00,FEW,FEW,0.00,WeatherDisplay:10.37,2013-09-06 16:51:00,
2013-09-06 11:57:00,87.4,64.7,30.09,South,180,8.0,9.0,47,0.00,FEW,FEW,0.00,WeatherDisplay:10.37,2013-09-06 16:57:00,
2013-09-06 12:03:00,87.7,65.5,30.08,SSE,148,5.0,8.0,48,0.00,FEW,FEW,0.00,WeatherDisplay:10.37,2013-09-06 17:03:00,
2013-09-06 12:09:00,87.8,65.7,30.08,SE,142,6.0,13.0,48,0.00,FEW,FEW,0.00,WeatherDisplay:10.37,2013-09-06 17:09:00,
2013-09-06 12:15:00,88.9,65.5,30.08,South,175,6.0,8.0,46,0.00,FEW,FEW,0.00,WeatherDisplay:10.37,2013-09-06 17:15:00,
2013-09-06 12:21:00,89.0,64.9,30.08,SSW,194,7.0,10.0,45,0.00,FEW,FEW,0.00,WeatherDisplay:10.37,2013-09-06 17:21:00,
2013-09-06 12:27:00,89.0,65.5,30.08,South,173,5.0,12.0,46,0.00,FEW,FEW,0.00,WeatherDisplay:10.37,2013-09-06 17:27:00,
2013-09-06 12:33:00,90.7,66.4,30.08,South,174,5.0,7.0,45,0.00,FEW,FEW,0.00,WeatherDisplay:10.37,2013-09-06 17:33:00,
2013-09-06 12:39:00,90.1,65.9,30.07,SSW,192,7.0,9.0,45,0.00,FEW,FEW,0.00,WeatherDisplay:10.37,2013-09-06 17:39:00,
2013-09-06 12:45:00,90.7,66.4,30.07,SW,222,5.0,5.0,45,0.00,FEW,FEW,0.00,WeatherDisplay:10.37,2013-09-06 17:45:00,
2013-09-06 12:51:00,91.1,66.8,30.07,SSW,213,5.0,8.0,45,0.00,FEW,FEW,0.00,WeatherDisplay:10.37,2013-09-06 17:51:00,
2013-09-06 12:57:00,91.5,67.1,30.07,South,182,6.0,10.0,45,0.00,FEW,FEW,0.00,WeatherDisplay:10.37,2013-09-06 17:57:00,
2013-09-06 13:03:00,92.2,67.2,30.06,NW,318,6.0,8.0,44,0.00,CLR,CLR,0.00,WeatherDisplay:10.37,2013-09-06 18:03:00,
2013-09-06 13:09:00,92.9,67.8,30.06,SSE,160,5.0,7.0,44,0.00,CLR,CLR,0.00,WeatherDisplay:10.37,2013-09-06 18:09:00,
2013-09-06 13:15:00,91.8,66.1,30.06,South,172,3.0,6.0,43,0.00,CLR,CLR,0.00,WeatherDisplay:10.37,2013-09-06 18:15:00,
2013-09-06 13:21:00,93.0,66.5,30.06,SSE,166,5.0,7.0,42,0.00,CLR,CLR,0.00,WeatherDisplay:10.37,2013-09-06 18:21:00,
2013-09-06 13:27:00,92.0,64.9,30.06,South,191,6.0,12.0,41,0.00,CLR,CLR,0.00,WeatherDisplay:10.37,2013-09-06 18:27:00,
2013-09-06 13:33:00,93.8,66.5,30.06,South,182,2.0,6.0,41,0.00,CLR,CLR,0.00,WeatherDisplay:10.37,2013-09-06 18:33:00,
2013-09-06 13:39:00,94.2,66.9,30.05,SSW,203,3.0,8.0,41,0.00,CLR,CLR,0.00,WeatherDisplay:10.37,2013-09-06 18:39:00,
2013-09-06 13:45:00,94.0,66.0,30.05,SW,220,3.0,6.0,40,0.00,CLR,CLR,0.00,WeatherDisplay:10.37,2013-09-06 18:45:00,
2013-09-06 13:51:00,93.8,66.5,30.05,SSE,157,5.0,7.0,41,0.00,CLR,CLR,0.00,WeatherDisplay:10.37,2013-09-06 18:51:00,
2013-09-06 13:57:00,94.2,66.9,30.05,SSE,147,3.0,8.0,41,0.00,CLR,CLR,0.00,WeatherDisplay:10.37,2013-09-06 18:57:00,
2013-09-06 14:03:00,94.8,66.7,30.04,SSE,153,5.0,7.0,40,0.00,CLR,CLR,0.00,WeatherDisplay:10.37,2013-09-06 19:03:00,
2013-09-06 14:09:00,94.9,66.8,30.04,ESE,106,3.0,4.0,40,0.00,CLR,CLR,0.00,WeatherDisplay:10.37,2013-09-06 19:09:00,
2013-09-06 14:15:00,94.9,66.8,30.04,ESE,113,3.0,4.0,40,0.00,CLR,CLR,0.00,WeatherDisplay:10.37,2013-09-06 19:15:00,
2013-09-06 14:21:00,94.9,66.8,30.04,ESE,113,3.0,4.0,40,0.00,CLR,CLR,0.00,WeatherDisplay:10.37,2013-09-06 19:21:00,
2013-09-06 14:27:00,94.9,66.8,30.04,ESE,113,3.0,4.0,40,0.00,CLR,CLR,0.00,WeatherDisplay:10.37,2013-09-06 19:27:00,
2013-09-06 14:33:00,94.9,66.8,30.04,ESE,113,3.0,4.0,40,0.00,CLR,CLR,0.00,WeatherDisplay:10.37,2013-09-06 19:33:00,
2013-09-06 14:39:00,95.9,67.7,30.03,SE,132,5.0,6.0,40,0.00,CLR,CLR,0.00,WeatherDisplay:10.37,2013-09-06 19:39:00,
2013-09-06 14:45:00,96.6,66.0,30.03,WSW,247,5.0,6.0,37,0.00,CLR,CLR,0.00,WeatherDisplay:10.37,2013-09-06 19:45:00,
2013-09-06 14:51:00,95.9,66.2,30.03,SE,136,7.0,9.0,38,0.00,CLR,CLR,0.00,WeatherDisplay:10.37,2013-09-06 19:51:00,
2013-09-06 14:57:00,95.1,66.9,30.03,ESE,109,6.0,8.0,40,0.00,CLR,CLR,0.00,WeatherDisplay:10.37,2013-09-06 19:57:00,
2013-09-06 15:03:00,96.1,65.6,30.02,SSE,167,7.0,10.0,37,0.00,CLR,CLR,0.00,WeatherDisplay:10.37,2013-09-06 20:03:00,
2013-09-06 15:09:00,96.1,65.6,30.02,South,170,8.0,9.0,37,0.00,CLR,CLR,0.00,WeatherDisplay:10.37,2013-09-06 20:09:00,
2013-09-06 15:15:00,95.9,66.2,30.02,ESE,114,7.0,8.0,38,0.00,CLR,CLR,0.00,WeatherDisplay:10.37,2013-09-06 20:15:00,
2013-09-06 15:21:00,95.7,66.8,30.02,ENE,68,5.0,6.0,39,0.00,CLR,CLR,0.00,WeatherDisplay:10.37,2013-09-06 20:21:00,
2013-09-06 15:27:00,96.1,66.3,30.01,East,94,7.0,8.0,38,0.00,CLR,CLR,0.00,WeatherDisplay:10.37,2013-09-06 20:27:00,
2013-09-06 15:33:00,96.5,65.9,30.01,East,90,3.0,7.0,37,0.00,CLR,CLR,0.00,WeatherDisplay:10.37,2013-09-06 20:33:00,
2013-09-06 15:39:00,96.5,66.7,30.01,ESE,106,5.0,7.0,38,0.00,CLR,CLR,0.00,WeatherDisplay:10.37,2013-09-06 20:39:00,
2013-09-06 15:45:00,96.2,66.4,30.01,ESE,123,7.0,8.0,38,0.00,CLR,CLR,0.00,WeatherDisplay:10.37,2013-09-06 20:45:00,
2013-09-06 15:51:00,96.6,65.2,30.00,SE,124,5.0,10.0,36,0.00,CLR,CLR,0.00,WeatherDisplay:10.37,2013-09-06 20:51:00,
2013-09-06 15:57:00,96.4,65.9,30.00,SSE,162,3.0,5.0,37,0.00,CLR,CLR,0.00,WeatherDisplay:10.37,2013-09-06 20:57:00,
2013-09-06 16:03:00,96.5,67.5,30.00,SW,232,5.0,6.0,39,0.00,SCT,SCT,0.00,WeatherDisplay:10.37,2013-09-06 21:03:00,
2013-09-06 16:09:00,96.6,67.6,30.00,SE,143,5.0,7.0,39,0.00,SCT,SCT,0.00,WeatherDisplay:10.37,2013-09-06 21:09:00,
2013-09-06 16:15:00,96.2,64.9,30.00,SSE,160,5.0,7.0,36,0.00,SCT,SCT,0.00,WeatherDisplay:10.37,2013-09-06 21:15:00,
2013-09-06 16:21:00,95.9,64.7,30.00,SE,140,7.0,12.0,36,0.00,SCT,SCT,0.00,WeatherDisplay:10.37,2013-09-06 21:21:00,
2013-09-06 16:27:00,96.3,65.0,29.99,ESE,116,5.0,7.0,36,0.00,SCT,SCT,0.00,WeatherDisplay:10.37,2013-09-06 21:27:00,
2013-09-06 16:33:00,95.3,64.2,29.99,ESE,108,7.0,12.0,36,0.00,SCT,SCT,0.00,WeatherDisplay:10.37,2013-09-06 21:33:00,
2013-09-06 16:39:00,95.4,64.2,29.99,SE,126,8.0,12.0,36,0.00,SCT,SCT,0.00,WeatherDisplay:10.37,2013-09-06 21:39:00,
2013-09-06 16:45:00,95.4,65.8,29.99,South,184,5.0,8.0,38,0.00,SCT,SCT,0.00,WeatherDisplay:10.37,2013-09-06 21:45:00,
2013-09-06 16:51:00,94.9,64.5,29.99,East,100,5.0,8.0,37,0.00,SCT,SCT,0.00,WeatherDisplay:10.37,2013-09-06 21:51:00,
2013-09-06 16:57:00,94.2,64.7,29.99,ENE,63,5.0,10.0,38,0.00,SCT,SCT,0.00,WeatherDisplay:10.37,2013-09-06 21:57:00,
2013-09-06 17:03:00,94.8,66.0,29.99,ESE,106,5.0,8.0,39,0.00,SCT,SCT,0.00,WeatherDisplay:10.37,2013-09-06 22:03:00,
2013-09-06 17:09:00,93.2,64.5,29.99,East,96,6.0,7.0,39,0.00,SCT,SCT,0.00,WeatherDisplay:10.37,2013-09-06 22:09:00,
2013-09-06 17:15:00,93.3,65.4,29.98,ENE,72,6.0,8.0,40,0.00,SCT,SCT,0.00,WeatherDisplay:10.37,2013-09-06 22:15:00,
2013-09-06 17:21:00,94.1,66.1,29.98,East,85,5.0,8.0,40,0.00,SCT,SCT,0.00,WeatherDisplay:10.37,2013-09-06 22:21:00,
2013-09-06 17:27:00,93.4,66.1,29.98,SSE,159,6.0,7.0,41,0.00,SCT,SCT,0.00,WeatherDisplay:10.37,2013-09-06 22:27:00,
2013-09-06 17:33:00,92.4,65.2,29.98,East,89,7.0,8.0,41,0.00,SCT,SCT,0.00,WeatherDisplay:10.37,2013-09-06 22:33:00,
2013-09-06 17:39:00,92.2,65.8,29.98,ESE,114,6.0,8.0,42,0.00,SCT,SCT,0.00,WeatherDisplay:10.37,2013-09-06 22:39:00,
2013-09-06 17:45:00,92.0,66.3,29.98,ESE,117,5.0,7.0,43,0.00,SCT,SCT,0.00,WeatherDisplay:10.37,2013-09-06 22:45:00,
2013-09-06 17:51:00,91.8,65.4,29.98,East,79,6.0,7.0,42,0.00,SCT,SCT,0.00,WeatherDisplay:10.37,2013-09-06 22:51:00,
2013-09-06 17:57:00,91.3,65.7,29.98,East,95,5.0,9.0,43,0.00,SCT,SCT,0.00,WeatherDisplay:10.37,2013-09-06 22:57:00,
2013-09-06 18:03:00,91.5,65.8,29.98,SSE,166,6.0,8.0,43,0.00,SCT,SCT,0.00,WeatherDisplay:10.37,2013-09-06 23:03:00,
2013-09-06 18:09:00,91.3,65.6,29.98,ESE,116,5.0,8.0,43,0.00,SCT,SCT,0.00,WeatherDisplay:10.37,2013-09-06 23:09:00,
2013-09-06 18:15:00,91.0,66.0,29.97,ESE,113,5.0,7.0,44,0.00,SCT,SCT,0.00,WeatherDisplay:10.37,2013-09-06 23:15:00,
2013-09-06 18:21:00,90.7,65.8,29.97,SE,126,5.0,6.0,44,0.00,SCT,SCT,0.00,WeatherDisplay:10.37,2013-09-06 23:21:00,
2013-09-06 18:27:00,90.4,66.2,29.97,SE,133,5.0,6.0,45,0.00,SCT,SCT,0.00,WeatherDisplay:10.37,2013-09-06 23:27:00,
2013-09-06 18:33:00,90.2,65.9,29.97,ESE,111,6.0,8.0,45,0.00,SCT,SCT,0.00,WeatherDisplay:10.37,2013-09-06 23:33:00,
2013-09-06 18:39:00,89.8,65.6,29.97,ESE,105,6.0,9.0,45,0.00,SCT,SCT,0.00,WeatherDisplay:10.37,2013-09-06 23:39:00,
2013-09-06 18:45:00,89.7,66.8,29.97,ESE,121,5.0,6.0,47,0.00,SCT,SCT,0.00,WeatherDisplay:10.37,2013-09-06 23:45:00,
2013-09-06 18:51:00,88.9,66.1,29.97,SE,130,6.0,7.0,47,0.00,SCT,SCT,0.00,WeatherDisplay:10.37,2013-09-06 23:51:00,
2013-09-06 18:57:00,88.7,66.5,29.97,SE,133,5.0,7.0,48,0.00,SCT,SCT,0.00,WeatherDisplay:10.37,2013-09-06 23:57:00,
2013-09-06 19:03:00,88.5,66.3,29.97,ESE,114,6.0,9.0,48,0.00,FEW,FEW,0.00,WeatherDisplay:10.37,2013-09-07 00:03:00,
2013-09-06 19:09:00,88.0,66.4,29.97,ESE,104,6.0,8.0,49,0.00,FEW,FEW,0.00,WeatherDisplay:10.37,2013-09-07 00:09:00,
2013-09-06 19:15:00,88.4,66.2,29.97,East,91,6.0,7.0,48,0.00,FEW,FEW,0.00,WeatherDisplay:10.37,2013-09-07 00:15:00,
2013-09-06 19:21:00,88.0,65.8,29.97,ESE,107,5.0,7.0,48,0.00,FEW,FEW,0.00,WeatherDisplay:10.37,2013-09-07 00:21:00,
2013-09-06 19:27:00,87.9,65.7,29.97,East,94,5.0,6.0,48,0.00,FEW,FEW,0.00,WeatherDisplay:10.37,2013-09-07 00:27:00,
2013-09-06 19:33:00,87.5,66.0,29.97,ESE,106,6.0,7.0,49,0.00,FEW,FEW,0.00,WeatherDisplay:10.37,2013-09-07 00:33:00,
2013-09-06 19:39:00,86.9,66.0,29.96,ESE,105,5.0,7.0,50,0.00,FEW,FEW,0.00,WeatherDisplay:10.37,2013-09-07 00:39:00,
2013-09-06 19:45:00,86.4,65.5,29.96,SE,125,5.0,5.0,50,0.00,FEW,FEW,0.00,WeatherDisplay:10.37,2013-09-07 00:45:00,
2013-09-06 19:51:00,86.4,65.5,29.97,SE,146,5.0,6.0,50,0.00,FEW,FEW,0.00,WeatherDisplay:10.37,2013-09-07 00:51:00,
2013-09-06 19:57:00,85.9,65.6,29.97,SSE,151,6.0,9.0,51,0.00,FEW,FEW,0.00,WeatherDisplay:10.37,2013-09-07 00:57:00,
2013-09-06 20:03:00,85.4,65.8,29.97,SSE,148,5.0,9.0,52,0.00,FEW,FEW,0.00,WeatherDisplay:10.37,2013-09-07 01:03:00,
2013-09-06 20:09:00,85.1,65.5,29.97,SE,141,3.0,7.0,52,0.00,FEW,FEW,0.00,WeatherDisplay:10.37,2013-09-07 01:09:00,
2013-09-06 20:15:00,84.8,65.8,29.97,ESE,105,2.0,4.0,53,0.00,FEW,FEW,0.00,WeatherDisplay:10.37,2013-09-07 01:15:00,
2013-09-06 20:21:00,84.5,65.5,29.97,SE,124,3.0,4.0,53,0.00,FEW,FEW,0.00,WeatherDisplay:10.37,2013-09-07 01:21:00,
2013-09-06 20:27:00,84.2,65.2,29.97,SSE,152,5.0,7.0,53,0.00,FEW,FEW,0.00,WeatherDisplay:10.37,2013-09-07 01:27:00,
2013-09-06 20:33:00,83.9,65.4,29.97,ESE,102,3.0,4.0,54,0.00,FEW,FEW,0.00,WeatherDisplay:10.37,2013-09-07 01:33:00,
2013-09-06 20:39:00,83.7,65.3,29.97,ESE,119,3.0,7.0,54,0.00,FEW,FEW,0.00,WeatherDisplay:10.37,2013-09-07 01:39:00,
2013-09-06 20:45:00,83.5,65.6,29.97,ESE,113,6.0,12.0,55,0.00,FEW,FEW,0.00,WeatherDisplay:10.37,2013-09-07 01:45:00,
2013-09-06 20:51:00,83.3,65.4,29.97,ESE,116,3.0,9.0,55,0.00,FEW,FEW,0.00,WeatherDisplay:10.37,2013-09-07 01:51:00,
2013-09-06 20:57:00,83.1,65.2,29.97,ESE,120,3.0,5.0,55,0.00,FEW,FEW,0.00,WeatherDisplay:10.37,2013-09-07 01:57:00,
2013-09-06 21:03:00,82.8,65.0,29.98,ESE,115,3.0,6.0,55,0.00,FEW,FEW,0.00,WeatherDisplay:10.37,2013-09-07 02:03:00,
2013-09-06 21:09:00,82.6,64.8,29.98,SE,129,2.0,5.0,55,0.00,FEW,FEW,0.00,WeatherDisplay:10.37,2013-09-07 02:09:00,
2013-09-06 21:15:00,82.4,65.1,29.98,SE,142,3.0,5.0,56,0.00,FEW,FEW,0.00,WeatherDisplay:10.37,2013-09-07 02:15:00,
2013-09-06 21:21:00,82.3,65.0,29.98,East,91,2.0,8.0,56,0.00,FEW,FEW,0.00,WeatherDisplay:10.37,2013-09-07 02:21:00,
2013-09-06 21:27:00,82.1,64.8,29.98,SE,132,3.0,5.0,56,0.00,FEW,FEW,0.00,WeatherDisplay:10.37,2013-09-07 02:27:00,
2013-09-06 21:33:00,81.9,65.1,29.98,SSE,165,3.0,5.0,57,0.00,FEW,FEW,0.00,WeatherDisplay:10.37,2013-09-07 02:33:00,
2013-09-06 21:39:00,81.5,64.8,29.98,SSE,162,5.0,8.0,57,0.00,FEW,FEW,0.00,WeatherDisplay:10.37,2013-09-07 02:39:00,
2013-09-06 21:45:00,81.4,64.7,29.98,SE,139,2.0,5.0,57,0.00,FEW,FEW,0.00,WeatherDisplay:10.37,2013-09-07 02:45:00,
2013-09-06 21:51:00,81.2,65.0,29.98,SE,135,5.0,7.0,58,0.00,FEW,FEW,0.00,WeatherDisplay:10.37,2013-09-07 02:51:00,
2013-09-06 21:57:00,81.0,64.8,29.98,SE,133,3.0,4.0,58,0.00,FEW,FEW,0.00,WeatherDisplay:10.37,2013-09-07 02:57:00,
2013-09-06 22:03:00,80.7,65.0,29.99,ESE,110,3.0,5.0,59,0.00,FEW,FEW,0.00,WeatherDisplay:10.37,2013-09-07 03:03:00,
2013-09-06 22:09:00,80.5,64.8,29.99,ESE,122,3.0,8.0,59,0.00,FEW,FEW,0.00,WeatherDisplay:10.37,2013-09-07 03:09:00,
2013-09-06 22:15:00,80.5,64.8,29.99,SE,124,6.0,10.0,59,0.00,FEW,FEW,0.00,WeatherDisplay:10.37,2013-09-07 03:15:00,
2013-09-06 22:21:00,80.3,65.1,29.99,SSE,157,3.0,6.0,60,0.00,FEW,FEW,0.00,WeatherDisplay:10.37,2013-09-07 03:21:00,
2013-09-06 22:27:00,80.0,64.9,29.99,SE,143,3.0,6.0,60,0.00,FEW,FEW,0.00,WeatherDisplay:10.37,2013-09-07 03:27:00,
2013-09-06 22:33:00,79.7,65.1,29.99,SSE,151,3.0,6.0,61,0.00,FEW,FEW,0.00,WeatherDisplay:10.37,2013-09-07 03:33:00,
2013-09-06 22:39:00,79.6,64.9,29.98,ESE,113,2.0,5.0,61,0.00,FEW,FEW,0.00,WeatherDisplay:10.37,2013-09-07 03:39:00,
2013-09-06 22:45:00,79.4,65.2,29.98,ESE,119,5.0,7.0,62,0.00,FEW,FEW,0.00,WeatherDisplay:10.37,2013-09-07 03:45:00,
2013-09-06 22:51:00,79.2,65.0,29.99,SE,144,5.0,7.0,62,0.00,FEW,FEW,0.00,WeatherDisplay:10.37,2013-09-07 03:51:00,
2013-09-06 22:57:00,79.0,64.8,29.99,SSE,154,3.0,5.0,62,0.00,FEW,FEW,0.00,WeatherDisplay:10.37,2013-09-07 03:57:00,
2013-09-06 23:03:00,78.8,65.1,29.99,SE,145,3.0,5.0,63,0.00,FEW,FEW,0.00,WeatherDisplay:10.37,2013-09-07 04:03:00,
2013-09-06 23:06:00,78.8,65.1,29.99,SE,144,2.0,6.0,63,0.00,FEW,FEW,0.00,WeatherDisplay:10.37,2013-09-07 04:06:00,
2013-09-06 23:09:00,78.7,65.0,29.99,SE,130,3.0,5.0,63,0.00,FEW,FEW,0.00,WeatherDisplay:10.37,2013-09-07 04:09:00,
2013-09-06 23:15:00,78.5,64.8,29.99,SE,127,3.0,8.0,63,0.00,FEW,FEW,0.00,WeatherDisplay:10.37,2013-09-07 04:15:00,
2013-09-06 23:21:00,78.3,64.6,29.99,SE,137,5.0,7.0,63,0.00,FEW,FEW,0.00,WeatherDisplay:10.37,2013-09-07 04:21:00,
2013-09-06 23:24:00,78.3,65.1,29.99,SSE,155,3.0,7.0,64,0.00,FEW,FEW,0.00,WeatherDisplay:10.37,2013-09-07 04:24:00,
2013-09-06 23:30:00,77.9,64.7,29.98,SSE,149,0.0,0.0,64,0.00,FEW,FEW,0.00,WeatherDisplay:10.37,2013-09-07 04:30:00,
2013-09-06 23:36:00,77.8,65.1,29.98,NE,42,1.0,3.0,65,0.00,FEW,FEW,0.00,WeatherDisplay:10.37,2013-09-07 04:36:00,
2013-09-06 23:42:00,77.6,64.9,29.99,ESE,105,2.0,3.0,65,0.00,FEW,FEW,0.00,WeatherDisplay:10.37,2013-09-07 04:42:00,
2013-09-06 23:48:00,77.2,64.9,29.99,SE,126,0.0,4.0,66,0.00,FEW,FEW,0.00,WeatherDisplay:10.37,2013-09-07 04:48:00,
2013-09-06 23:54:00,77.0,64.7,30.00,SE,134,3.0,5.0,66,0.00,FEW,FEW,0.00,WeatherDisplay:10.37,2013-09-07 04:54:00,